ELECTRON KICK STAGE R/B, 58579

Orbit data source: Space-Track

ELECTRON KICK STAGE R/B, 58579 is space debris in LEO originally from a launch on Fri, 15 Dec 2023 UTC launched from the Rocket Lab Launch Complex (RLLC). Debris objects in space refer to the collection of defunct objects orbiting the Earth. Examples of debris include non-operational satellites, rocket bodies, and fragments generated from explosions, collisions, or faulty payload assembly.

Loading next visibility...
Identifier
58579, 2023-196B
Orbit
LEO
Country
Flag of USUS
Related business
Manufacturer
Rocket Lab
Mission
Spacecraft
Bus & Motor
KICK STAGE, CURIE
Mass
~42 kg wet, ~42 kg dry
Launch date (UTC)
2023-12-15 (3 years ago)
Launch vehicle
Unknown
Launch site
Rocket Lab Launch Complex (RLLC)
Object type
Payload
Rocket body
Debris
Shape & HBR
Trunc Cone, 0.7 m
Radar Cross Section
0.760 m², Medium (>0.1 m² and < 1m²)

Expand to show TLE details & history
Last TLE update: 2 days ago

TLE from 2 days ago
0 ELECTRON KICK STAGE R/B
1 58579U 23196B   26171.07600098  .00004776  00000-0  26839-3 0  9997
2 58579  42.0203  25.9874 0020028 258.7263 101.1317 15.14005117138378
Epoch: 2026-06-20T01:49Z
TLE epoch observation values (Epoch: 2026-06-20T01:49:26.484Z)
Latitude
-0.00003°
Longitude
90.33119°
Altitude
526.364 km
Speed
7.6 km/s
True Right ascension
01h 43m 56s
True Declination
0° 00' 00"
Sunlit
Object was in daylight at epoch
Visualization orbit readout
Latitude
Unknown
Longitude
Unknown
Altitude
Unknown
Speed
Unknown
Apparent Right ascension
Unknown
Apparent Declination
Unknown
Sunlit
N/A
Visualization observer readout
Local Sidereal Time
21:30:05
Azimuth
Unknown
Elevation
Unknown
Doppler factor
Unknown
Orbital elements
Apogee altitude
539.925 km
Perigee altitude
512.27 km
Semi-major axis
6,904.234 km
Eccentricity
0.002
Inclination
42.0203°
RAAN
25.9874°
Arg. of periapsis
258.7263°
True anomaly
101.35678°
Mean anomaly
101.1317°
Eccentric anomaly
101.24425°
Mean motion
3.78329 °/min
Orbital period
95.16 mins
BSTAR
0.00026839
Loading maneuver chart data...
Computing Atmospheric mass density...
Loading historical data...
Loading historical data...
Loading historical data...
Loading historical data...
Loading historical data...
Loading historical data...
Loading historical data...
Other satellites on launch #196 in the year 2023 (2023-12-15 UTC)

Documentation

Showing up to 5 results
|